ONEWEB-0697, 61603

Orbit data source: Space-Track

ONEWEB-0697, 61603 is a payload satellite owned by Eut. One Web (UK) in LEO that was launched on Sun, 20 Oct 2024 UTC via an FALCON 9 launch vehicle from the Air Force Western Test Range (AFWTR). Payload-class satellites include a variety of spacecraft equipped with specific instruments for various scientific and technological missions. These include communications satellites like Starlink; space stations such as the ISS; scientific satellites like the Hubble; Earth observation satellites from companies like Planet Labs, Umbra, and HawkEye 360; GPS; miniature CubeSats for education and research; and military/defense satellites.

Loading next visibility...
Identifier
61603, 2024-188K
Orbit
LEO
Country
Flag of UKUK
Related business
Manufacturer
One Web
Mission
Operational Commercial Communications
Bus & Motor
ARROW, Unknown motor
Mass
148 kg wet, ~140 kg dry
Launch date (UTC)
2024-10-20 (1 year ago)
Launch vehicle
FALCON 9
Launch site
Air Force Western Test Range (AFWTR)
Object type
Payload
Rocket body
Debris
Shape & HBR
Trap Box + 2 Pan, 6.7 m
Radar Cross Section
3.464 m², Large (>1 m²)

Expand to show TLE details & history
Last TLE update: 14 hours ago

TLE from 14 hours ago
0 ONEWEB-0697
1 61603U 24188K   25346.90796459 -.00000068  00000-0 -22831-3 0  9993
2 61603  87.8853  58.1672 0001346  76.9986 283.1292 13.11414492 60031
Epoch: 2025-12-12T21:47Z
TLE epoch observation values (Epoch: 2025-12-12T21:47:28.140Z)
Latitude
-0.00004°
Longitude
9.4571°
Altitude
1,220.349 km
Speed
7.244 km/s
True Right ascension
03h 52m 40s
True Declination
0° 00' 00"
Sunlit
Object was in full shadow at epoch
Visualization orbit readout
Latitude
Unknown
Longitude
Unknown
Altitude
Unknown
Speed
Unknown
Apparent Right ascension
Unknown
Apparent Declination
Unknown
Sunlit
N/A
Visualization observer readout
Local Sidereal Time
10:29:52
Azimuth
Unknown
Elevation
Unknown
Doppler factor
Unknown
Orbital elements
Apogee altitude
1,215.832 km
Perigee altitude
1,213.788 km
Semi-major axis
7,592.947 km
Eccentricity
0.00013
Inclination
87.8853°
RAAN
58.1672°
Arg. of periapsis
76.9986°
True anomaly
283.11418°
Mean anomaly
283.1292°
Eccentric anomaly
283.12169°
Mean motion
3.28041 °/min
Orbital period
109.74 mins
BSTAR
-0.00022831
Loading maneuver chart data...
Computing Atmospheric mass density...
Loading historical data...
Loading historical data...
Loading historical data...
Loading historical data...
Loading historical data...
Loading historical data...
Loading historical data...

Documentation

Showing up to 5 results
|